Flag for U.S.A. Weather past 2 weeks in Stamford, Connecticut, U.S.A.

Now
67 °F

Sunny.


Feels Like: 67 °F
Forecast: 59 / 79 °F
Wind: 12 mph from North

Location: Westchester County Airport

Current Time: Aug 28, 2015 at 9:26:04 AM

Latest Report: Aug 28, 2015 at 8:56 AM


Visibility: 10 mi

Pressure: 30.17 "Hg

Humidity: 61%

Dew point: 53 °F

Location of StamfordLocation

Historic Weather in Stamford — Graph

°F

Stamford temperature yesterday

Maximum temperature yesterday: 77 °F (at 2:56 PM)
Minimum temperature yesterday: 60 °F (at 3:56 AM)
Average temperature yesterday: 69 °F

Past Weeks' High & Low Weather Summary

 TemperatureHumidityPressure
High90 °F (Aug 15, 2:56 PM)97% (Aug 18, 11:56 PM)30.17 "Hg (Aug 18, 11:56 PM)
Low59 °F (Aug 28, 5:56 AM)31% (Aug 13, 5:56 PM)29.79 "Hg (Aug 25, 4:56 PM)
Average75 °F68%30.01 "Hg
* Reported Aug 13 7:56 AM — Aug 28 7:56 AM, Stamford, Weather by CustomWeather, © 2015

Note: Actual official high and low records may vary slightly from our data, if they occured in-between our weather recording intervals... More about our weather records

Advertising

Stamford weather history for previous 24 hours

 ConditionsComfort  
Time TempWeatherWind HumidityBarometerVisibility
7:56 AM
Fri, Aug 28
63 °FSunny.5 mph73%30.16 "Hg10 mi
6:56 AM59 °FClear.7 mph84%30.14 "Hg10 mi
5:56 AM59 °FClear.6 mph81%30.13 "Hg10 mi
4:56 AM60 °FClear.6 mph80%30.12 "Hg10 mi
3:56 AM61 °FClear.7 mph78%30.11 "Hg10 mi
2:56 AM62 °FPassing clouds.5 mph73%30.11 "Hg10 mi
1:56 AM61 °FClear.7 mph78%30.11 "Hg10 mi
12:56 AM63 °FClear.7 mph73%30.11 "Hg10 mi
11:56 PM
Thu, Aug 27
62 °FClear.7 mph75%30.11 "Hg10 mi
10:56 PM63 °FClear.7 mph75%30.10 "Hg10 mi
9:56 PM66 °FClear.5 mph65%30.09 "Hg10 mi
8:56 PM66 °FClear.5 mph63%30.08 "Hg10 mi
7:56 PM70 °FPassing clouds.8 mph53%30.06 "Hg10 mi
6:56 PM73 °FPassing clouds.8 mph50%30.04 "Hg10 mi
5:56 PM74 °FScattered clouds.9 mph50%30.04 "Hg10 mi
4:56 PM76 °FPartly sunny.12 mph45%30.03 "Hg10 mi
3:56 PM76 °FScattered clouds.12 mph43%30.03 "Hg10 mi
2:56 PM77 °FScattered clouds.9 mph44%30.03 "Hg10 mi
1:56 PM76 °FScattered clouds.12 mph43%30.04 "Hg10 mi
12:56 PM76 °FPartly sunny.10 mph47%30.04 "Hg10 mi
11:56 AM75 °FScattered clouds.12 mph47%30.05 "Hg10 mi
10:56 AM74 °FPassing clouds.14 mph50%30.06 "Hg10 mi
9:56 AM73 °FPassing clouds.8 mph53%30.05 "Hg10 mi
Weather by CustomWeather, © 2015

See weather overviewHow to use our weather pages